Year,Month,Day,Hour,Minute,Value (Times are PST for temperature in C)
2023,04,24,00,12,6.90
2023,04,24,00,13,6.90
2023,04,24,00,14,6.90
2023,04,24,00,15,6.90
2023,04,24,00,16,6.90
2023,04,24,00,17,6.90
2023,04,24,00,18,6.90
2023,04,24,00,19,6.90
2023,04,24,00,20,6.90
2023,04,24,00,21,6.90
2023,04,24,00,22,6.90
2023,04,24,00,23,6.90
2023,04,24,00,24,6.90
2023,04,24,00,25,6.90
2023,04,24,00,26,6.90
2023,04,24,00,27,6.90
2023,04,24,00,28,7.00
2023,04,24,00,29,7.00
2023,04,24,00,30,7.00
2023,04,24,00,31,7.00
2023,04,24,00,32,7.00
2023,04,24,00,33,7.10
2023,04,24,00,34,7.10
2023,04,24,00,35,7.10
2023,04,24,00,36,7.10
2023,04,24,00,37,7.10
2023,04,24,00,38,7.10
2023,04,24,00,39,7.10
2023,04,24,00,40,7.10
2023,04,24,00,41,7.10
2023,04,24,00,42,7.10
2023,04,24,00,43,7.10
2023,04,24,00,44,7.10
2023,04,24,00,45,7.10
2023,04,24,00,46,7.10
2023,04,24,00,47,7.10
2023,04,24,00,48,7.10
2023,04,24,00,49,7.10
2023,04,24,00,50,7.10
2023,04,24,00,51,7.10
2023,04,24,00,52,7.00
2023,04,24,00,53,7.00
2023,04,24,00,54,7.00
2023,04,24,00,55,7.00
2023,04,24,00,56,7.00
2023,04,24,00,57,7.00
2023,04,24,00,58,7.00
2023,04,24,00,59,7.00
2023,04,24,01,00,7.00
2023,04,24,01,01,7.00
2023,04,24,01,02,7.00
2023,04,24,01,03,7.00
2023,04,24,01,04,7.00
2023,04,24,01,05,7.00
2023,04,24,01,06,6.90
2023,04,24,01,07,7.00
2023,04,24,01,08,6.90
2023,04,24,01,09,6.90
2023,04,24,01,10,6.90
2023,04,24,01,11,6.90
2023,04,24,01,12,6.90
2023,04,24,01,13,6.90
2023,04,24,01,14,6.90
2023,04,24,01,15,6.90
2023,04,24,01,16,6.90
2023,04,24,01,17,6.90
2023,04,24,01,18,6.90
2023,04,24,01,19,6.80
2023,04,24,01,20,6.80
2023,04,24,01,21,6.80
2023,04,24,01,22,6.80
2023,04,24,01,23,6.80
2023,04,24,01,24,6.80
2023,04,24,01,25,6.80
2023,04,24,01,26,6.80
2023,04,24,01,27,6.80
2023,04,24,01,28,6.80
2023,04,24,01,29,6.70
2023,04,24,01,30,6.70
2023,04,24,01,31,6.70
2023,04,24,01,32,6.70
2023,04,24,01,33,6.70
2023,04,24,01,34,6.70
2023,04,24,01,35,6.70
2023,04,24,01,36,6.70
2023,04,24,01,37,6.70
2023,04,24,01,38,6.70
2023,04,24,01,39,6.70
2023,04,24,01,40,6.70
2023,04,24,01,41,6.70
2023,04,24,01,42,6.70
2023,04,24,01,43,6.70
2023,04,24,01,44,6.70
2023,04,24,01,45,6.60
2023,04,24,01,46,6.60
2023,04,24,01,47,6.60
2023,04,24,01,48,6.60
2023,04,24,01,49,6.60
2023,04,24,01,50,6.60
2023,04,24,01,51,6.60
2023,04,24,01,52,6.60
2023,04,24,01,53,6.60
2023,04,24,01,54,6.60
2023,04,24,01,55,6.50
2023,04,24,01,56,6.50
2023,04,24,01,57,6.50
2023,04,24,01,58,6.50
2023,04,24,01,59,6.50
2023,04,24,02,00,6.40
2023,04,24,02,01,6.40
2023,04,24,02,02,6.40
2023,04,24,02,03,6.40
2023,04,24,02,04,6.40
2023,04,24,02,05,6.40
2023,04,24,02,06,6.40
2023,04,24,02,07,6.30
2023,04,24,02,08,6.30
2023,04,24,02,09,6.30
2023,04,24,02,10,6.30
2023,04,24,02,11,6.30
2023,04,24,02,12,6.30
2023,04,24,02,13,6.30
2023,04,24,02,14,6.30
2023,04,24,02,15,6.30
2023,04,24,02,16,6.30
2023,04,24,02,17,6.30
2023,04,24,02,18,6.30
2023,04,24,02,19,6.30
2023,04,24,02,20,6.30
2023,04,24,02,21,6.30
2023,04,24,02,22,6.20
2023,04,24,02,23,6.20
2023,04,24,02,24,6.20
2023,04,24,02,25,6.20
2023,04,24,02,26,6.20
2023,04,24,02,27,6.20
2023,04,24,02,28,6.20
2023,04,24,02,29,6.20
2023,04,24,02,30,6.20
2023,04,24,02,31,6.20
2023,04,24,02,32,6.20
2023,04,24,02,33,6.20
2023,04,24,02,34,6.20
2023,04,24,02,35,6.20
2023,04,24,02,36,6.20
2023,04,24,02,37,6.30
2023,04,24,02,38,6.30
2023,04,24,02,39,6.30
2023,04,24,02,40,6.30
2023,04,24,02,41,6.30
2023,04,24,02,42,6.30
2023,04,24,02,43,6.30
2023,04,24,02,44,6.30
2023,04,24,02,45,6.30
2023,04,24,02,46,6.30
2023,04,24,02,47,6.30
2023,04,24,02,48,6.30
2023,04,24,02,49,6.30
2023,04,24,02,50,6.30
2023,04,24,02,51,6.30
2023,04,24,02,52,6.30
2023,04,24,02,53,6.30
2023,04,24,02,54,6.30
2023,04,24,02,55,6.30
2023,04,24,02,56,6.30
2023,04,24,02,57,6.30
2023,04,24,02,58,6.30
2023,04,24,02,59,6.20
2023,04,24,03,00,6.20
2023,04,24,03,01,6.20
2023,04,24,03,02,6.20
2023,04,24,03,03,6.20
2023,04,24,03,04,6.20
2023,04,24,03,05,6.20
2023,04,24,03,06,6.20
2023,04,24,03,07,6.20
2023,04,24,03,08,6.20
2023,04,24,03,09,6.20
2023,04,24,03,10,6.20
2023,04,24,03,11,6.20
2023,04,24,03,12,6.20
2023,04,24,03,13,6.20
2023,04,24,03,14,6.20
2023,04,24,03,15,6.20
2023,04,24,03,16,6.20
2023,04,24,03,17,6.20
2023,04,24,03,18,6.20
2023,04,24,03,19,6.20
2023,04,24,03,20,6.20
2023,04,24,03,21,6.20
2023,04,24,03,22,6.20
2023,04,24,03,23,6.20
2023,04,24,03,24,6.20
2023,04,24,03,25,6.20
2023,04,24,03,26,6.20
2023,04,24,03,27,6.20
2023,04,24,03,28,6.20
2023,04,24,03,29,6.20
2023,04,24,03,30,6.20
2023,04,24,03,31,6.20
2023,04,24,03,32,6.20
2023,04,24,03,33,6.20
2023,04,24,03,34,6.20
2023,04,24,03,35,6.20
2023,04,24,03,36,6.20
2023,04,24,03,37,6.20
2023,04,24,03,38,6.20
2023,04,24,03,39,6.10
2023,04,24,03,40,6.10
2023,04,24,03,41,6.10
2023,04,24,03,42,6.10
2023,04,24,03,43,6.10
2023,04,24,03,44,6.10
2023,04,24,03,45,6.10
2023,04,24,03,46,6.10
2023,04,24,03,47,6.00
2023,04,24,03,48,6.00
2023,04,24,03,49,6.00
2023,04,24,03,50,6.00
2023,04,24,03,51,6.00
2023,04,24,03,52,6.00
2023,04,24,03,53,5.90
2023,04,24,03,54,5.90
2023,04,24,03,55,5.90
2023,04,24,03,56,5.90
2023,04,24,03,57,5.90
2023,04,24,03,58,5.90
2023,04,24,03,59,5.90
2023,04,24,04,00,5.90
2023,04,24,04,01,5.90
2023,04,24,04,02,5.90
2023,04,24,04,03,5.90
2023,04,24,04,04,5.90
2023,04,24,04,05,5.90
2023,04,24,04,06,5.90
2023,04,24,04,07,5.90
2023,04,24,04,08,5.90
2023,04,24,04,09,5.90
2023,04,24,04,10,5.80
2023,04,24,04,11,5.80
2023,04,24,04,12,5.80
2023,04,24,04,13,5.80
2023,04,24,04,14,5.80
2023,04,24,04,15,5.80
2023,04,24,04,16,5.80
2023,04,24,04,17,5.80
2023,04,24,04,18,5.80
2023,04,24,04,19,5.80
2023,04,24,04,20,5.80
2023,04,24,04,21,5.80
2023,04,24,04,22,5.80
2023,04,24,04,23,5.80
2023,04,24,04,24,5.80
2023,04,24,04,25,5.80
2023,04,24,04,26,5.80
2023,04,24,04,27,5.80
2023,04,24,04,28,5.80
2023,04,24,04,29,5.80
2023,04,24,04,30,5.80
2023,04,24,04,31,5.80
2023,04,24,04,32,5.80
2023,04,24,04,33,5.80
2023,04,24,04,34,5.80
2023,04,24,04,35,5.80
2023,04,24,04,36,5.80
2023,04,24,04,37,5.80
2023,04,24,04,38,5.80
2023,04,24,04,39,5.80
2023,04,24,04,40,5.80
2023,04,24,04,41,5.80
2023,04,24,04,42,5.80
2023,04,24,04,43,5.80
2023,04,24,04,44,5.80
2023,04,24,04,45,5.70
2023,04,24,04,46,5.70
2023,04,24,04,47,5.70
2023,04,24,04,48,5.70
2023,04,24,04,49,5.70
2023,04,24,04,50,5.70
2023,04,24,04,51,5.70
2023,04,24,04,52,5.70
2023,04,24,04,53,5.70
2023,04,24,04,54,5.70
2023,04,24,04,55,5.70
2023,04,24,04,56,5.70
2023,04,24,04,57,5.70
2023,04,24,04,58,5.70
2023,04,24,04,59,5.70
2023,04,24,05,00,5.70
2023,04,24,05,01,5.70
2023,04,24,05,02,5.70
2023,04,24,05,03,5.70
2023,04,24,05,04,5.70
2023,04,24,05,05,5.70
2023,04,24,05,06,5.70
2023,04,24,05,07,5.70
2023,04,24,05,08,5.70
2023,04,24,05,09,5.70
2023,04,24,05,10,5.70
2023,04,24,05,11,5.70
2023,04,24,05,12,5.70
2023,04,24,05,13,5.70
2023,04,24,05,14,5.70
2023,04,24,05,15,5.70
2023,04,24,05,16,5.70
2023,04,24,05,17,5.80
2023,04,24,05,18,5.80
2023,04,24,05,19,5.80
2023,04,24,05,20,5.80
2023,04,24,05,21,5.80
2023,04,24,05,22,5.80
2023,04,24,05,23,5.80
2023,04,24,05,24,5.80
2023,04,24,05,25,5.70
2023,04,24,05,26,5.70
2023,04,24,05,27,5.70
2023,04,24,05,28,5.70
2023,04,24,05,29,5.70
2023,04,24,05,30,5.70
2023,04,24,05,31,5.70
2023,04,24,05,32,5.70
2023,04,24,05,33,5.70
2023,04,24,05,34,5.70
2023,04,24,05,35,5.70
2023,04,24,05,36,5.60
2023,04,24,05,37,5.60
2023,04,24,05,38,5.60
2023,04,24,05,39,5.60
2023,04,24,05,40,5.60
2023,04,24,05,41,5.60
2023,04,24,05,42,5.60
2023,04,24,05,43,5.60
2023,04,24,05,44,5.60
2023,04,24,05,45,5.60
2023,04,24,05,46,5.60
2023,04,24,05,47,5.60
2023,04,24,05,48,5.60
2023,04,24,05,49,5.60
2023,04,24,05,50,5.60
2023,04,24,05,51,5.60
2023,04,24,05,52,5.70
2023,04,24,05,53,5.60
2023,04,24,05,54,5.70
2023,04,24,05,55,5.70
2023,04,24,05,56,5.70
2023,04,24,05,57,5.70
2023,04,24,05,58,5.60
2023,04,24,05,59,5.60
2023,04,24,06,00,5.60
2023,04,24,06,01,5.60
2023,04,24,06,02,5.60
2023,04,24,06,03,5.60
2023,04,24,06,04,5.60
2023,04,24,06,05,5.60
2023,04,24,06,06,5.60
2023,04,24,06,07,5.60
2023,04,24,06,08,5.60
2023,04,24,06,09,5.50
2023,04,24,06,10,5.60
2023,04,24,06,11,5.50
2023,04,24,06,12,5.50
2023,04,24,06,13,5.50
2023,04,24,06,14,5.50
2023,04,24,06,15,5.50
2023,04,24,06,16,5.50
2023,04,24,06,17,5.50
2023,04,24,06,18,5.50
2023,04,24,06,19,5.40
2023,04,24,06,20,5.40
2023,04,24,06,21,5.40
2023,04,24,06,22,5.40
2023,04,24,06,23,5.40
2023,04,24,06,24,5.40
2023,04,24,06,25,5.40
2023,04,24,06,26,5.40
2023,04,24,06,27,5.40
2023,04,24,06,28,5.40
2023,04,24,06,29,5.40
2023,04,24,06,30,5.40
2023,04,24,06,31,5.40
2023,04,24,06,32,5.40
2023,04,24,06,33,5.30
2023,04,24,06,34,5.30
2023,04,24,06,35,5.30
2023,04,24,06,36,5.30
2023,04,24,06,37,5.30
2023,04,24,06,38,5.30
2023,04,24,06,39,5.30
2023,04,24,06,40,5.30
2023,04,24,06,41,5.40
2023,04,24,06,42,5.40
2023,04,24,06,43,5.40
2023,04,24,06,44,5.40
2023,04,24,06,45,5.40
2023,04,24,06,46,5.40
2023,04,24,06,47,5.40
2023,04,24,06,48,5.40
2023,04,24,06,49,5.40
2023,04,24,06,50,5.40
2023,04,24,06,51,5.40
2023,04,24,06,52,5.40
2023,04,24,06,53,5.40
2023,04,24,06,54,5.40
2023,04,24,06,55,5.40
2023,04,24,06,56,5.40
2023,04,24,06,57,5.40
2023,04,24,06,58,5.40
2023,04,24,06,59,5.40
2023,04,24,07,00,5.50
2023,04,24,07,01,5.50
2023,04,24,07,02,5.50
2023,04,24,07,03,5.50
2023,04,24,07,04,5.50
2023,04,24,07,05,5.50
2023,04,24,07,06,5.50
2023,04,24,07,07,5.50
2023,04,24,07,08,5.50
2023,04,24,07,09,5.60
2023,04,24,07,10,5.60
2023,04,24,07,11,5.60
2023,04,24,07,12,5.60
2023,04,24,07,13,5.60
2023,04,24,07,14,5.60
2023,04,24,07,15,5.60
2023,04,24,07,16,5.60
2023,04,24,07,17,5.60
2023,04,24,07,18,5.60
2023,04,24,07,19,5.70
2023,04,24,07,20,5.70
2023,04,24,07,21,5.70
2023,04,24,07,22,5.70
2023,04,24,07,23,5.70
2023,04,24,07,24,5.70
2023,04,24,07,25,5.80
2023,04,24,07,26,5.80
2023,04,24,07,27,5.80
2023,04,24,07,28,5.80
2023,04,24,07,29,5.80
2023,04,24,07,30,5.80
2023,04,24,07,31,5.80
2023,04,24,07,32,5.80
2023,04,24,07,33,5.80
2023,04,24,07,34,5.80
2023,04,24,07,35,5.90
2023,04,24,07,36,5.90
2023,04,24,07,37,5.90
2023,04,24,07,38,6.00
2023,04,24,07,39,6.00
2023,04,24,07,40,6.00
2023,04,24,07,41,6.10
2023,04,24,07,42,6.10
2023,04,24,07,43,6.10
2023,04,24,07,44,6.10
2023,04,24,07,45,6.20
2023,04,24,07,46,6.20
2023,04,24,07,47,6.20
2023,04,24,07,48,6.20
2023,04,24,07,49,6.20
2023,04,24,07,50,6.20
2023,04,24,07,51,6.20
2023,04,24,07,52,6.30
2023,04,24,07,53,6.30
2023,04,24,07,54,6.30
2023,04,24,07,55,6.30
2023,04,24,07,56,6.40
2023,04,24,07,57,6.40
2023,04,24,07,58,6.40
2023,04,24,07,59,6.40
2023,04,24,08,00,6.40
2023,04,24,08,01,6.40
2023,04,24,08,02,6.40
2023,04,24,08,03,6.50
2023,04,24,08,04,6.50
2023,04,24,08,05,6.50
2023,04,24,08,06,6.50
2023,04,24,08,07,6.50
2023,04,24,08,08,6.50
2023,04,24,08,09,6.50
2023,04,24,08,10,6.50
2023,04,24,08,11,6.50
2023,04,24,08,12,6.60
2023,04,24,08,13,6.50
2023,04,24,08,14,6.60
2023,04,24,08,15,6.60
2023,04,24,08,16,6.60
2023,04,24,08,17,6.60
2023,04,24,08,18,6.60
2023,04,24,08,19,6.60
2023,04,24,08,20,6.60
2023,04,24,08,21,6.60
2023,04,24,08,22,6.60
2023,04,24,08,23,6.60
2023,04,24,08,24,6.60
2023,04,24,08,25,6.60
2023,04,24,08,26,6.70
2023,04,24,08,27,6.70
2023,04,24,08,28,6.70
2023,04,24,08,29,6.80
2023,04,24,08,30,6.80
2023,04,24,08,31,6.80
2023,04,24,08,32,6.80
2023,04,24,08,33,6.80
2023,04,24,08,34,6.90
2023,04,24,08,35,6.90
2023,04,24,08,36,6.90
2023,04,24,08,37,6.90
2023,04,24,08,38,7.00
2023,04,24,08,39,7.10
2023,04,24,08,40,7.10
2023,04,24,08,41,7.10
2023,04,24,08,42,7.10
2023,04,24,08,43,7.20
2023,04,24,08,44,7.20
2023,04,24,08,45,7.20
2023,04,24,08,46,7.20
2023,04,24,08,47,7.30
2023,04,24,08,48,7.30
2023,04,24,08,49,7.30
2023,04,24,08,50,7.30
2023,04,24,08,51,7.30
2023,04,24,08,52,7.40
2023,04,24,08,53,7.40
2023,04,24,08,54,7.40
2023,04,24,08,55,7.50
2023,04,24,08,56,7.60
2023,04,24,08,57,7.60
2023,04,24,08,58,7.60
2023,04,24,08,59,7.60
2023,04,24,09,00,7.70
2023,04,24,09,01,7.70
2023,04,24,09,02,7.70
2023,04,24,09,03,7.80
2023,04,24,09,04,7.80
2023,04,24,09,05,7.80
2023,04,24,09,06,7.80
2023,04,24,09,07,7.80
2023,04,24,09,08,7.80
2023,04,24,09,09,7.90
2023,04,24,09,10,7.90
2023,04,24,09,11,7.90
2023,04,24,09,12,7.90
2023,04,24,09,13,8.00
2023,04,24,09,14,8.00
2023,04,24,09,15,8.00
2023,04,24,09,16,8.00
2023,04,24,09,17,8.10
2023,04,24,09,18,8.10
2023,04,24,09,19,8.20
2023,04,24,09,20,8.20
2023,04,24,09,21,8.20
2023,04,24,09,22,8.20
2023,04,24,09,23,8.30
2023,04,24,09,24,8.30
2023,04,24,09,25,8.30
2023,04,24,09,26,8.30
2023,04,24,09,27,8.30
2023,04,24,09,28,8.30
2023,04,24,09,29,8.40
2023,04,24,09,30,8.40
2023,04,24,09,31,8.50
2023,04,24,09,32,8.50
2023,04,24,09,33,8.60
2023,04,24,09,34,8.60
2023,04,24,09,35,8.60
2023,04,24,09,36,8.70
2023,04,24,09,37,8.70
2023,04,24,09,38,8.70
2023,04,24,09,39,8.70
2023,04,24,09,40,8.80
2023,04,24,09,41,8.80
2023,04,24,09,42,8.90
2023,04,24,09,43,8.90
2023,04,24,09,44,9.00
2023,04,24,09,45,9.00
2023,04,24,09,46,9.00
2023,04,24,09,47,9.10
2023,04,24,09,48,9.10
2023,04,24,09,49,9.10
2023,04,24,09,50,9.20
2023,04,24,09,51,9.20
2023,04,24,09,52,9.20
2023,04,24,09,53,9.30
2023,04,24,09,54,9.30
2023,04,24,09,55,9.30
2023,04,24,09,56,9.40
2023,04,24,09,57,9.40
2023,04,24,09,58,9.40
2023,04,24,09,59,9.40
2023,04,24,10,00,9.50
2023,04,24,10,01,9.50
2023,04,24,10,02,9.50
2023,04,24,10,03,9.50
2023,04,24,10,04,9.50
2023,04,24,10,05,9.60
2023,04,24,10,06,9.60
2023,04,24,10,07,9.60
2023,04,24,10,08,9.70
2023,04,24,10,09,9.60
2023,04,24,10,10,9.60
2023,04,24,10,11,9.60
2023,04,24,10,12,9.60
2023,04,24,10,13,9.60
2023,04,24,10,14,9.60
2023,04,24,10,15,9.60
2023,04,24,10,16,9.60
2023,04,24,10,17,9.70
2023,04,24,10,18,9.70
2023,04,24,10,19,9.70
2023,04,24,10,20,9.70
2023,04,24,10,21,9.70
2023,04,24,10,22,9.70
2023,04,24,10,23,9.70
2023,04,24,10,24,9.70
2023,04,24,10,25,9.80
2023,04,24,10,26,9.80
2023,04,24,10,27,9.80
2023,04,24,10,28,9.80
2023,04,24,10,29,9.80
2023,04,24,10,30,9.80
2023,04,24,10,31,9.80
2023,04,24,10,32,9.80
2023,04,24,10,33,9.90
2023,04,24,10,34,9.90
2023,04,24,10,35,9.90
2023,04,24,10,36,9.90
2023,04,24,10,37,10.00
2023,04,24,10,38,10.00
2023,04,24,10,39,10.10
2023,04,24,10,40,10.10
2023,04,24,10,41,10.10
2023,04,24,10,42,10.10
2023,04,24,10,43,10.20
2023,04,24,10,44,10.20
2023,04,24,10,45,10.20
2023,04,24,10,46,10.20
2023,04,24,10,47,10.20
2023,04,24,10,48,10.20
2023,04,24,10,49,10.20
2023,04,24,10,50,10.20
2023,04,24,10,51,10.20
2023,04,24,10,52,10.30
2023,04,24,10,53,10.30
2023,04,24,10,54,10.40
2023,04,24,10,55,10.40
2023,04,24,10,56,10.40
2023,04,24,10,57,10.50
2023,04,24,10,58,10.50
2023,04,24,10,59,10.60
2023,04,24,11,00,10.70
2023,04,24,11,01,10.70
2023,04,24,11,02,10.70
2023,04,24,11,03,10.70
2023,04,24,11,04,10.80
2023,04,24,11,05,10.80
2023,04,24,11,06,10.80
2023,04,24,11,07,10.80
2023,04,24,11,08,10.80
2023,04,24,11,09,10.80
2023,04,24,11,10,10.80
2023,04,24,11,11,10.80
2023,04,24,11,12,10.80
2023,04,24,11,13,10.70
2023,04,24,11,14,10.70
2023,04,24,11,15,10.70
2023,04,24,11,16,10.80
2023,04,24,11,17,10.80
2023,04,24,11,18,10.80
2023,04,24,11,19,10.80
2023,04,24,11,20,10.90
2023,04,24,11,21,10.90
2023,04,24,11,22,11.00
2023,04,24,11,23,11.10
2023,04,24,11,24,11.20
2023,04,24,11,25,11.20
2023,04,24,11,26,11.30
2023,04,24,11,27,11.30
2023,04,24,11,28,11.30
2023,04,24,11,29,11.30
2023,04,24,11,30,11.20
2023,04,24,11,31,11.20
2023,04,24,11,32,11.20
2023,04,24,11,33,11.20
2023,04,24,11,34,11.20
2023,04,24,11,35,11.20
2023,04,24,11,36,11.20
2023,04,24,11,37,11.20
2023,04,24,11,38,11.20
2023,04,24,11,39,11.20
2023,04,24,11,40,11.10
2023,04,24,11,41,11.10
2023,04,24,11,42,11.20
2023,04,24,11,43,11.20
2023,04,24,11,44,11.20
2023,04,24,11,45,11.20
2023,04,24,11,46,11.20
2023,04,24,11,47,11.30
2023,04,24,11,48,11.30
2023,04,24,11,49,11.30
2023,04,24,11,50,11.30
2023,04,24,11,51,11.30
2023,04,24,11,52,11.30
2023,04,24,11,53,11.30
2023,04,24,11,54,11.30
2023,04,24,11,55,11.30
2023,04,24,11,56,11.30
2023,04,24,11,57,11.30
2023,04,24,11,58,11.30
2023,04,24,11,59,11.30
2023,04,24,12,00,11.40
2023,04,24,12,01,11.40
2023,04,24,12,02,11.30
2023,04,24,12,03,11.40
2023,04,24,12,04,11.40
2023,04,24,12,05,11.40
2023,04,24,12,06,11.40
2023,04,24,12,07,11.40
2023,04,24,12,08,11.40
2023,04,24,12,09,11.40
2023,04,24,12,10,11.40
2023,04,24,12,11,11.40
2023,04,24,12,12,11.40
2023,04,24,12,13,11.40
2023,04,24,12,14,11.30
2023,04,24,12,15,11.30
2023,04,24,12,16,11.30
2023,04,24,12,17,11.30
2023,04,24,12,18,11.40
2023,04,24,12,19,11.40
2023,04,24,12,20,11.40
2023,04,24,12,21,11.40
2023,04,24,12,22,11.40
2023,04,24,12,23,11.40
2023,04,24,12,24,11.50
2023,04,24,12,25,11.50
2023,04,24,12,26,11.50
2023,04,24,12,27,11.50
2023,04,24,12,28,11.50
2023,04,24,12,29,11.60
2023,04,24,12,30,11.60
2023,04,24,12,31,11.60
2023,04,24,12,32,11.70
2023,04,24,12,33,11.70
2023,04,24,12,34,11.80
2023,04,24,12,35,11.80
2023,04,24,12,36,11.90
2023,04,24,12,37,12.00
2023,04,24,12,38,12.00
2023,04,24,12,39,12.00
2023,04,24,12,40,11.90
2023,04,24,12,41,11.90
2023,04,24,12,42,11.90
2023,04,24,12,43,11.80
2023,04,24,12,44,11.80
2023,04,24,12,45,11.80
2023,04,24,12,46,11.70
2023,04,24,12,47,11.70
2023,04,24,12,48,11.70
2023,04,24,12,49,11.70
2023,04,24,12,50,11.70
2023,04,24,12,51,11.70
2023,04,24,12,52,11.70
2023,04,24,12,53,11.70
2023,04,24,12,54,11.70
2023,04,24,12,55,11.70
2023,04,24,12,56,11.70
2023,04,24,12,57,11.70
2023,04,24,12,58,11.70
2023,04,24,12,59,11.70
2023,04,24,13,00,11.70
2023,04,24,13,01,11.80
2023,04,24,13,02,11.80
2023,04,24,13,03,11.80
2023,04,24,13,04,11.90
2023,04,24,13,05,12.00
2023,04,24,13,06,12.00
2023,04,24,13,07,12.10
2023,04,24,13,08,12.10
2023,04,24,13,09,12.10
2023,04,24,13,10,12.20
2023,04,24,13,11,12.20
2023,04,24,13,12,12.10
2023,04,24,13,13,12.10
2023,04,24,13,14,12.00
2023,04,24,13,15,12.00
2023,04,24,13,16,12.00
2023,04,24,13,17,12.10
2023,04,24,13,18,12.20
2023,04,24,13,19,12.20
2023,04,24,13,20,12.20
2023,04,24,13,21,12.10
2023,04,24,13,22,12.10
2023,04,24,13,23,12.20
2023,04,24,13,24,12.20
2023,04,24,13,25,12.30
2023,04,24,13,26,12.20
2023,04,24,13,27,12.20
2023,04,24,13,28,12.20
2023,04,24,13,29,12.20
2023,04,24,13,30,12.20
2023,04,24,13,31,12.20
2023,04,24,13,32,12.20
2023,04,24,13,33,12.20
2023,04,24,13,34,12.20
2023,04,24,13,35,12.20
2023,04,24,13,36,12.20
2023,04,24,13,37,12.10
2023,04,24,13,38,12.10
2023,04,24,13,39,12.00
2023,04,24,13,40,12.10
2023,04,24,13,41,12.10
2023,04,24,13,42,12.20
2023,04,24,13,43,12.20
2023,04,24,13,44,12.20
2023,04,24,13,45,12.20
2023,04,24,13,46,12.20
2023,04,24,13,47,12.20
2023,04,24,13,48,12.20
2023,04,24,13,49,12.20
2023,04,24,13,50,12.20
2023,04,24,13,51,12.20
2023,04,24,13,52,12.30
2023,04,24,13,53,12.30
2023,04,24,13,54,12.30
2023,04,24,13,55,12.30
2023,04,24,13,56,12.20
2023,04,24,13,57,12.30
2023,04,24,13,58,12.30
2023,04,24,13,59,12.30
2023,04,24,14,00,12.40
2023,04,24,14,01,12.50
2023,04,24,14,02,12.60
2023,04,24,14,03,12.70
2023,04,24,14,04,12.80
2023,04,24,14,05,12.80
2023,04,24,14,06,12.90
2023,04,24,14,07,12.90
2023,04,24,14,08,12.90
2023,04,24,14,09,12.90
2023,04,24,14,10,12.80
2023,04,24,14,11,12.80
2023,04,24,14,12,12.80
2023,04,24,14,13,12.70
2023,04,24,14,14,12.70
2023,04,24,14,15,12.70
2023,04,24,14,16,12.70
2023,04,24,14,17,12.70
2023,04,24,14,18,12.60
2023,04,24,14,19,12.50
2023,04,24,14,20,12.40
2023,04,24,14,21,12.40
2023,04,24,14,22,12.30
2023,04,24,14,23,12.20
2023,04,24,14,24,12.10
2023,04,24,14,25,12.00
2023,04,24,14,26,11.90
2023,04,24,14,27,11.80
2023,04,24,14,28,11.80
2023,04,24,14,29,11.80
2023,04,24,14,30,11.90
2023,04,24,14,31,11.90
2023,04,24,14,32,11.90
2023,04,24,14,33,11.90
2023,04,24,14,34,11.90
2023,04,24,14,35,11.90
2023,04,24,14,36,11.80
2023,04,24,14,37,11.80
2023,04,24,14,38,11.80
2023,04,24,14,39,11.80
2023,04,24,14,40,11.80
2023,04,24,14,41,11.80
2023,04,24,14,42,11.80
2023,04,24,14,43,11.80
2023,04,24,14,44,11.90
2023,04,24,14,45,12.00
2023,04,24,14,46,12.10
2023,04,24,14,47,12.20
2023,04,24,14,48,12.20
2023,04,24,14,49,12.20
2023,04,24,14,50,12.20
2023,04,24,14,51,12.30
2023,04,24,14,52,12.30
2023,04,24,14,53,12.30
2023,04,24,14,54,12.30
2023,04,24,14,55,12.30
2023,04,24,14,56,12.30
2023,04,24,14,57,12.30
2023,04,24,14,58,12.30
2023,04,24,14,59,12.30
2023,04,24,15,00,12.20
2023,04,24,15,01,12.20
2023,04,24,15,02,12.10
2023,04,24,15,03,12.10
2023,04,24,15,04,12.10
2023,04,24,15,05,12.10
2023,04,24,15,06,12.10
2023,04,24,15,07,12.00
2023,04,24,15,08,12.00
2023,04,24,15,09,12.00
2023,04,24,15,10,12.00
2023,04,24,15,11,12.00
2023,04,24,15,12,12.00
2023,04,24,15,13,12.10
2023,04,24,15,14,12.10
2023,04,24,15,15,12.20
2023,04,24,15,16,12.20
2023,04,24,15,17,12.20
2023,04,24,15,18,12.20
2023,04,24,15,19,12.20
2023,04,24,15,20,12.30
2023,04,24,15,21,12.20
2023,04,24,15,22,12.20
2023,04,24,15,23,12.20
2023,04,24,15,24,12.20
2023,04,24,15,25,12.20
2023,04,24,15,26,12.20
2023,04,24,15,27,12.30
2023,04,24,15,28,12.30
2023,04,24,15,29,12.30
2023,04,24,15,30,12.30
2023,04,24,15,31,12.40
2023,04,24,15,32,12.40
2023,04,24,15,33,12.50
2023,04,24,15,34,12.50
2023,04,24,15,35,12.60
2023,04,24,15,36,12.60
2023,04,24,15,37,12.60
2023,04,24,15,38,12.70
2023,04,24,15,39,12.70
2023,04,24,15,40,12.70
2023,04,24,15,41,12.70
2023,04,24,15,42,12.70
2023,04,24,15,43,12.70
2023,04,24,15,44,12.70
2023,04,24,15,45,12.80
2023,04,24,15,46,12.80
2023,04,24,15,47,12.90
2023,04,24,15,48,12.90
2023,04,24,15,49,12.90
2023,04,24,15,50,12.90
2023,04,24,15,51,12.80
2023,04,24,15,52,12.80
2023,04,24,15,53,12.70
2023,04,24,15,54,12.70
2023,04,24,15,55,12.60
2023,04,24,15,56,12.60
2023,04,24,15,57,12.60
2023,04,24,15,58,12.60
2023,04,24,15,59,12.50
2023,04,24,16,00,12.50
2023,04,24,16,01,12.50
2023,04,24,16,02,12.50
2023,04,24,16,03,12.50
2023,04,24,16,04,12.40
2023,04,24,16,05,12.40
2023,04,24,16,06,12.40
2023,04,24,16,07,12.30
2023,04,24,16,08,12.30
2023,04,24,16,09,12.30
2023,04,24,16,10,12.30
2023,04,24,16,11,12.30
2023,04,24,16,12,12.30
2023,04,24,16,13,12.20
2023,04,24,16,14,12.20
2023,04,24,16,15,12.10
2023,04,24,16,16,12.00
2023,04,24,16,17,11.90
2023,04,24,16,18,11.90
2023,04,24,16,19,11.90
2023,04,24,16,20,11.80
2023,04,24,16,21,11.80
2023,04,24,16,22,11.80
2023,04,24,16,23,11.80
2023,04,24,16,24,11.80
2023,04,24,16,25,11.80
2023,04,24,16,26,11.80
2023,04,24,16,27,11.80
2023,04,24,16,28,11.80
2023,04,24,16,29,11.90
2023,04,24,16,30,11.90
2023,04,24,16,31,11.90
2023,04,24,16,32,11.90
2023,04,24,16,33,11.90
2023,04,24,16,34,11.90
2023,04,24,16,35,12.00
2023,04,24,16,36,12.00
2023,04,24,16,37,12.10
2023,04,24,16,38,12.10
2023,04,24,16,39,12.10
2023,04,24,16,40,12.10
2023,04,24,16,41,12.20
2023,04,24,16,42,12.20
2023,04,24,16,43,12.20
2023,04,24,16,44,12.20
2023,04,24,16,45,12.30
2023,04,24,16,46,12.30
2023,04,24,16,47,12.40
2023,04,24,16,48,12.40
2023,04,24,16,49,12.50
2023,04,24,16,50,12.50
2023,04,24,16,51,12.50
2023,04,24,16,52,12.50
2023,04,24,16,53,12.50
2023,04,24,16,54,12.40
2023,04,24,16,55,12.40
2023,04,24,16,56,12.40
2023,04,24,16,57,12.40
2023,04,24,16,58,12.40
2023,04,24,16,59,12.40
2023,04,24,17,00,12.40
2023,04,24,17,01,12.40
2023,04,24,17,02,12.40
2023,04,24,17,03,12.30
2023,04,24,17,04,12.30
2023,04,24,17,05,12.30
2023,04,24,17,06,12.30
2023,04,24,17,07,12.30
2023,04,24,17,08,12.30
2023,04,24,17,09,12.30
2023,04,24,17,10,12.30
2023,04,24,17,11,12.30
2023,04,24,17,12,12.20
2023,04,24,17,13,12.20
2023,04,24,17,14,12.20
2023,04,24,17,15,12.20
2023,04,24,17,16,12.20
2023,04,24,17,17,12.20
2023,04,24,17,18,12.20
2023,04,24,17,19,12.20
2023,04,24,17,20,12.20
2023,04,24,17,21,12.20
2023,04,24,17,22,12.20
2023,04,24,17,23,12.20
2023,04,24,17,24,12.20
2023,04,24,17,25,12.20
2023,04,24,17,26,12.20
2023,04,24,17,27,12.20
2023,04,24,17,28,12.30
2023,04,24,17,29,12.30
2023,04,24,17,30,12.30
2023,04,24,17,31,12.40
2023,04,24,17,32,12.40
2023,04,24,17,33,12.40
2023,04,24,17,34,12.40
2023,04,24,17,35,12.40
2023,04,24,17,36,12.50
2023,04,24,17,37,12.50
2023,04,24,17,38,12.60
2023,04,24,17,39,12.60
2023,04,24,17,40,12.70
2023,04,24,17,41,12.80
2023,04,24,17,42,12.80
2023,04,24,17,43,12.90
2023,04,24,17,44,12.90
2023,04,24,17,45,12.90
2023,04,24,17,46,12.90
2023,04,24,17,47,12.90
2023,04,24,17,48,13.00
2023,04,24,17,49,13.10
2023,04,24,17,50,13.20
2023,04,24,17,51,13.20
2023,04,24,17,52,13.20
2023,04,24,17,53,13.20
2023,04,24,17,54,13.20
2023,04,24,17,55,13.10
2023,04,24,17,56,13.00
2023,04,24,17,57,13.00
2023,04,24,17,58,12.90